www.pogodaiklimat.ru

Погода и климат >> Архив погоды >> Туркменистан >> Тюя-Муюн


ПОГОДА в Тюя-Муюне

  • Прогноз погоды в Тюя-Муюне
  • Монитор погоды в Тюя-Муюне

АРХИВ ПОГОДЫ в Тюя-Муюне

Время (UTC), дата Ветер
(напр.,м/с)
 
Видим.   Явления Облачность Т
(С)
Тd
(С)
f
(%)
Тe
(С)
Тes
(С)
Комфортность P
(гПа)
Po
(гПа)
Тmin
(С)
Tmax
(С)
R
(мм)
R24
(мм)
S
(см)
12 12.09 В 2 20 км 4/0
[Ac lent Ci sp]
+27.8 +7.3 27 +27 +30 жарко 1023.7 1010.5
15 12.09 штиль 0 н/о 8/8 600 м
[Sc]
+22.1 +6.1 35 +23 +23 комфорт 1022.9 1009.5 +28.8
18 12.09 штиль 0 н/о 3/0
[Ac lent]
+19.8 +3.6 34 +20 +20 1023.0 1009.4 +28.8
21 12.09 В 4 н/о 9/9 600 м
[Sc]
+17.6 +3.8 40 +17 +17 1022.7 1009.0
00 13.09 В 3 н/о 8/8 600 м
[Sc]
+16.4 +5.9 50 +16 +16 1022.0 1008.3
03 13.09 СВ 1 20 км 4/4 600 м
[Sc Ac lent]
+18.8 +5.0 40 +20 +21 1023.3 1009.7
06 13.09 штиль 0 20 км 4/4 1000 м
[Cu hum Ac cast]
+25.9 +7.3 31 +26 +34 жарко 1023.9 1010.6 +15.1
09 13.09 З 1 20 км 3/3 1000 м
[Cu hum]
+29.8 +7.6 25 +29 +39 жарко 1022.6 1009.4
12 13.09 З 4 20 км 8/8 600 м
[Sc]
+27.6 +5.8 25 +27 +27 жарко 1021.8 1008.6
15 13.09 З 2 н/о {ливн. осадки} 8/8 600 м
[Cb cap]
+23.1 +6.1 33 +24 +24 комфорт 1021.7 1008.3 +30.3
18 13.09 СЗ 1 н/о 5/0
[Ac lent]
+19.8 +9.4 51 +22 +22 комфорт 1021.5 1008.0 +30.3 0.0
21 13.09 штиль 0 н/о 3/0
[Ac lent]
+17.8 +8.8 56 +18 +18 1020.9 1007.3
00 14.09 С 1 н/о ясно +16.2 +8.4 60 +17 +17 1020.5 1006.9
03 14.09 С 1 20 км 3/3 600 м
[Sc]
+15.4 +4.5 48 +16 +17 1021.1 1007.4
06 14.09 СЗ 1 20 км 3/0
[Ac lent]
+22.5 +6.2 35 +23 +32 комфорт 1021.7 1008.3 +13.6
09 14.09 СЗ 3 20 км 3/3 1000 м
[Cu hum]
+26.8 +7.0 28 +26 +33 жарко 1021.2 1008.0
12 14.09 С 2 20 км 3/3 1000 м
[Cu hum]
+27.6 +6.4 26 +27 +29 жарко 1020.7 1007.5
15 14.09 СЗ 1 н/о ясно +22.5 +7.8 39 +24 +24 комфорт 1021.4 1008.0 +28.7
18 14.09 СЗ 2 н/о 3/3 1000 м
[Cu hum]
+19.5 +7.6 46 +21 +21 комфорт 1022.5 1008.9 +28.7
21 14.09 СЗ 1 н/о 3/3 600 м
[Sc]
+17.3 +9.3 59 +18 +18 1023.1 1009.4
00 15.09 штиль 0 н/о 3/3 1000 м
[Cu hum]
+12.8 +9.0 78 +12 +12 1023.7 1009.8
03 15.09 штиль 0 20 км ясно +15.2 +9.7 70 +15 +17 1024.6 1010.8
06 15.09 СВ 1 20 км ясно +23.0 +5.0 31 +23 +35 комфорт 1024.9 1011.5 +11.4
09 15.09 В 2 20 км ясно +25.4 +5.1 27 +25 +37 комфорт 1024.3 1011.0
12 15.09 штиль 0 20 км ясно +26.2 +5.6 27 +26 +30 жарко 1024.0 1010.8
15 15.09 штиль 0 н/о ясно +21.0 +9.9 49 +22 +22 комфорт 1024.3 1010.8 +27.6
18 15.09 штиль 0 н/о ясно +15.4 +11.3 77 +15 +15 1024.8 1011.0 +27.6
21 15.09 штиль 0 н/о ясно +13.6 +11.8 89 +13 +13 1024.4 1010.6
00 16.09 штиль 0 н/о ясно +12.2 +9.9 86 +12 +12 1024.5 1010.6
03 16.09 штиль 0 20 км ясно +13.8 +10.7 82 +13 +15 1025.3 1011.5
06 16.09 СЗ 1 20 км 3/3 600 м
[Sc]
+22.4 +5.5 33 +23 +31 комфорт 1026.1 1012.6 +9.8
09 16.09 З 1 20 км ясно +25.7 +3.8 24 +25 +39 комфорт 1025.0 1011.7
12 16.09 штиль 0 20 км ясно +26.3 +4.3 24 +25 +29 комфорт 1023.9 1010.7
15 16.09 СЗ 2 н/о ясно +21.2 +3.4 31 +21 +21 комфорт 1024.0 1010.5 +27.4
18 16.09 штиль 0 н/о ясно +16.2 +11.8 75 +16 +16 1024.3 1010.6 +27.4
00 17.09 штиль 0 н/о ясно +17.0 +11.9 72 +17 +17 1022.9 1009.2
03 17.09 штиль 0 20 км ясно +17.4 +8.9 57 +17 +19 1023.4 1009.7
09 17.09 Ю 3 20 км ясно +28.8 +8.4 28 +28 +38 жарко 1021.8 1008.6
12 17.09 ЮВ 2 20 км ясно +29.4 +7.7 26 +29 +32 жарко 1020.0 1006.9
15 17.09 штиль 0 н/о ясно +22.3 +10.7 48 +24 +24 комфорт 1018.0 1004.6 +30.2
18 17.09 штиль 0 н/о ясно +18.3 +12.9 71 +19 +19 1017.6 1004.1 +30.2
21 17.09 штиль 0 н/о ясно +17.0 +13.6 80 +17 +17 1016.5 1002.9
00 18.09 В 1 н/о ясно +16.3 +14.2 87 +17 +17 1014.8 1001.2
03 18.09 штиль 0 20 км ясно +16.9 +11.3 70 +17 +18 1015.3 1001.7
06 18.09 Ю 1 20 км 3/0
[Ac lent]
+28.2 +6.8 26 +27 +36 жарко 1015.3 1002.3 +14.4
09 18.09 ЮЗ 3 20 км 3/0
[Ac lent]
+34.0 +9.7 23 +33 +40 жарко 1014.6 1001.8
15 18.09 З 2 н/о ясно +27.4 +8.5 30 +27 +27 жарко 1016.4 1003.2 +36.2
03 19.09 штиль 0 20 км ясно +18.5 +13.0 70 +19 +20 1020.5 1007.0

 

Местоположение метеостанции Тюя-Муюн (Лебапский велаят, Туркменистан): широта 41.22 долгота 61.40 высота над уровнем моря 114 м.

В архиве по умолчанию представлена погода в Тюя-Муюне за последнюю неделю. Архивные данные за месяц целиком и за предыдущие месяцы, начиная с января 2011 года, Вы можете получить, выбрав интересующий диапазон дат из раскрывающегося списка и нажав кнопку "Ввод!".


*Определитесь, кто Вы:
робот инопланетянин человек

Внимание! Время в таблицах - всемирное. Для получения местного времени необходимо прибавить поправку, которая равна 5 ч.

Смотрите также архив погоды в соседних городах и на ближайших метеорологических станциях:

Погода в Ургенче (Хорезмская область, Узбекистан) (79 км)
Погода в Хиве (Хорезмская область, Узбекистан) (88 км)
Погода в Бузаубае (Хорезмская область, Узбекистан) (107 км)
Погода в Гурлене (Хорезмская область, Узбекистан) (109 км)
Погода в Дарганате (Лебапский велаят, Туркменистан) (112 км)
Погода в Дашогузе (Дашогузский велаят, Туркменистан) (144 км)
Погода в Джангельды (Бухарская область, Узбекистан) (167 км)
Погода в Тахиаташе (Каракалпакстан, Узбекистан) (199 км)
Погода в Нукусе (Каракалпакстан, Узбекистан) (201 км)
Погода в Тахтакупыре (Каракалпакстан, Узбекистан) (203 км)

Пояснения к столбцам:

Ветер - указаны скорость ветра в м/с - средняя за 10 мин, порывы в срок и между сроками (в фигурных скобках) и направление, откуда дует ветер: С - северный, СВ - северо-восточный, В - восточный, ЮВ - юго-восточный, Ю - южный, ЮЗ - юго-западный, З - западный, СЗ - северо-западный.
Видимость - горизонтальная дальность видимости в метрах или километрах. При видимости от 1 до 10 км при отсутствии осадков обычно наблюдается дымка, при ухудшении видимости до 1 км и менее - туман. В сухую погоду видимость может ухудшаться дымом, пылью или мглою.
Явления - указаны атмосферные явления, наблюдавшиеся в срок или в последний час перед сроком; фигурными скобками обозначены явления, наблюдавшиеся между сроками (за 1-3 часа до срока); квадратными скобками обозначены град или гололедные отложения с указанием их диаметра в мм.
Облачность - указаны через наклонную черту общая и нижняя облачность в баллах и высота нижней границы облаков в метрах; квадратными скобками обозначены формы облаков: Ci - перистые, Cs - перисто-слоистые, Cc - перисто-кучевые, Ac - высококучевые, As - высокослоистые, Sc - слоисто-кучевые, Ns - слоисто-дождевые, Cu - кучевые, Cb - кучево-дождевые. Подробнее классификацию облаков см. в Атласе облаков (PDF).
T - Температура воздуха - температура, измеренная на высоте 2 м над землей.
Td - Температура точки росы - температура, при понижении до которой содержащийся в воздухе водяной пар достигнет насыщения.
f - Относительная влажность воздуха - влажноcть воздуха, измеренная на высоте 2 м над землей.
Te - Эффективная температура - температура, которую ощущает одетый по сезону человек в тени. Характеристика душности погоды. При расчете учитывается влияние влажности воздуха и скорости ветра на теплоощущения человека.
Tes - Эффективная температура на солнце - температура, которую ощущает человек, с поправкой на солнечный нагрев. Характеристика знойности погоды. Зависит от высоты солнца над горизонтом, облачности и скорости ветра. Ночью, в пасмурную погоду, а также при ветре 12 м/с и более поправка равна нулю.
P - Атмосферное давление - приведенное к уровню моря атмосферное давление.
Po - Атмосферное давление - измеренное на уровне метеостанции атмосферное давление.
Tmin - Минимальная температура - минимум температуры воздуха на высоте 2 м над землей.
Tmax - Максимальная температура - максимум температуры воздуха на высоте 2 м над землей.
R - Количество осадков - Количество выпавших осадков за период времени, мм. При наведении курсора мыши на число - период времени, за который выпало указанное количество осадков.
R24 - Количество осадков - Количество выпавших осадков за 24 часа, мм.
S - Снежный покров - Высота снежного покрова, см. При наведении курсора мыши на число - состояние снежного покрова и степень покрытия местности в баллах.